| time (UTC) | temp F | wind direction | speed knots | gust knots | rain 1hr in | rain 24hr in | rain mn in | humidity % | barometer mb |
| 20260505004034 | 83 | 90 | 6.1 | 6.1 | 0.00 | 0.00 | 0.00 | 100 | 1015.2 |
| 20260505003355 | 83 | 97 | 0.9 | 5.2 | 0.00 | 0.00 | 0.00 | 100 | 1015.2 |
| 20260505002937 | 82 | 103 | 5.2 | 5.2 | 0.00 | 0.00 | 0.00 | 100 | 1015.2 |
| 20260505001956 | 81 | 96 | 0.9 | 7.8 | 0.00 | 0.00 | 0.00 | 100 | 1015.5 |
| 20260505001636 | 81 | 74 | 5.2 | 5.2 | 0.00 | 0.00 | 0.00 | 100 | 1015.7 |
| 20260505000857 | 81 | 72 | 5.2 | 5.2 | 0.00 | 0.00 | 0.00 | 100 | 1015.7 |
| 20260505000413 | 81 | 112 | 0.9 | 6.1 | 0.00 | 0.00 | 0.00 | 100 | 1015.8 |
| 20260505000111 | 81 | 85 | 5.2 | 5.2 | 0.00 | 0.00 | 0.00 | 100 | 1015.8 |
| 20260504235611 | 81 | 101 | 0.9 | 7.8 | 0.00 | 0.00 | 0.00 | 100 | 1016.0 |
| 20260504234727 | 80 | 107 | 5.2 | 6.1 | 0.00 | 0.00 | 0.00 | 100 | 1015.8 |
| 20260504234116 | 80 | 112 | 0.9 | 9.6 | 0.00 | 0.00 | 0.00 | 100 | 1015.9 |
| 20260504233816 | 80 | 70 | 6.1 | 9.6 | 0.00 | 0.00 | 0.00 | 100 | 1016.1 |
| 20260504233407 | 79 | 67 | 0.9 | 3.5 | 0.00 | 0.00 | 0.00 | 100 | 1016.2 |
| 20260504232046 | 78 | 67 | 5.2 | 6.1 | 0.00 | 0.00 | 0.00 | 100 | 1016.4 |
| 20260504231744 | 78 | 112 | 0.9 | 8.7 | 0.00 | 0.00 | 0.00 | 100 | 1016.4 |
| 20260504230944 | 78 | 75 | 5.2 | 7.0 | 0.00 | 0.00 | 0.00 | 100 | 1016.3 |
| 20260504230620 | 77 | 112 | 0.9 | 4.3 | 0.00 | 0.00 | 0.00 | 100 | 1016.3 |
| 20260504225711 | 77 | 110 | 0.9 | 7.8 | 0.00 | 0.00 | 0.00 | 100 | 1016.1 |
| 20260504225036 | 77 | 77 | 5.2 | 5.2 | 0.00 | 0.00 | 0.00 | 100 | 1016.3 |
| 20260504224508 | 76 | 112 | 0.0 | 8.7 | 0.00 | 0.00 | 0.00 | 100 | 1016.3 |
| 20260504224005 | 76 | 85 | 5.2 | 5.2 | 0.00 | 0.00 | 0.00 | 100 | 1016.3 |
| 20260504223648 | 76 | 103 | 0.0 | 9.6 | 0.00 | 0.00 | 0.00 | 100 | 1016.2 |
| 20260504223348 | 76 | 84 | 7.0 | 7.8 | 0.00 | 0.00 | 0.00 | 100 | 1016.3 |
| 20260504222735 | 75 | 72 | 2.6 | 4.3 | 0.00 | 0.00 | 0.00 | 100 | 1016.3 |
| 20260504221735 | 75 | 95 | 1.7 | 7.0 | 0.00 | 0.00 | 0.00 | 100 | 1016.1 |
| 20260504221432 | 75 | 71 | 6.1 | 6.1 | 0.00 | 0.00 | 0.00 | 100 | 1016.3 |
| 20260504221051 | 75 | 100 | 1.7 | 7.8 | 0.00 | 0.00 | 0.00 | 100 | 1016.2 |
| 20260504220626 | 75 | 85 | 6.1 | 6.1 | 0.00 | 0.00 | 0.00 | 100 | 1016.2 |
| 20260504220125 | 75 | 105 | 1.7 | 6.1 | 0.00 | 0.00 | 0.00 | 100 | 1016.1 |
| 20260504215724 | 75 | 82 | 6.1 | 6.1 | 0.00 | 0.00 | 0.00 | 100 | 1016.1 |
| 20260504214831 | 74 | 106 | 1.7 | 2.6 | 0.00 | 0.00 | 0.00 | 100 | 1015.9 |
| 20260504213829 | 73 | 105 | 0.0 | 1.7 | 0.00 | 0.00 | 0.00 | 100 | 1016.1 |
| 20260504212829 | 72 | 68 | 1.7 | 1.7 | 0.00 | 0.00 | 0.00 | 100 | 1015.9 |
| 20260504211826 | 71 | 88 | 1.7 | 1.7 | 0.00 | 0.00 | 0.00 | 100 | 1015.7 |
| 20260504210825 | 70 | 69 | 1.7 | 1.7 | 0.00 | 0.00 | 0.00 | 100 | 1015.8 |
| 20260504205825 | 69 | 67 | 1.7 | 1.7 | 0.00 | 0.00 | 0.00 | 100 | 1015.6 |
| 20260504204824 | 69 | 90 | 0.9 | 0.9 | 0.00 | 0.00 | 0.00 | 100 | 1015.5 |
| 20260504203822 | 69 | 78 | 0.0 | 1.7 | 0.00 | 0.00 | 0.00 | 100 | 1015.5 |
| 20260504202823 | 68 | 69 | 1.7 | 1.7 | 0.00 | 0.00 | 0.00 | 100 | 1015.3 |
| 20260504201821 | 68 | 97 | 0.0 | 1.7 | 0.00 | 0.00 | 0.00 | 100 | 1015.2 |
| 20260504200824 | 68 | 68 | 0.0 | 0.0 | 0.00 | 0.00 | 0.00 | 100 | 1015.3 |
| 20260504194818 | 68 | 112 | 0.0 | 0.9 | 0.00 | 0.00 | 0.00 | 100 | 1015.2 |
| 20260504193816 | 67 | 111 | 0.0 | 0.0 | 0.00 | 0.00 | 0.00 | 100 | 1015.1 |
| 20260504191822 | 67 | 71 | 0.0 | 0.9 | 0.00 | 0.00 | 0.00 | 100 | 1014.8 |
| 20260504185813 | 68 | 112 | 0.0 | 0.0 | 0.00 | 0.00 | 0.00 | 100 | 1014.6 |
| 20260504184812 | 68 | 67 | 0.0 | 0.0 | 0.00 | 0.00 | 0.00 | 100 | 1014.6 |
| 20260504183817 | 68 | 68 | 0.0 | 0.0 | 0.00 | 0.00 | 0.00 | 100 | 1014.5 |
| 20260504180808 | 69 | 97 | 0.0 | 0.0 | 0.00 | 0.00 | 0.00 | 100 | 1014.7 |
| 20260504175809 | 69 | 94 | 0.0 | 0.9 | 0.00 | 0.00 | 0.00 | 100 | 1014.6 |
| 20260504174807 | 69 | 112 | 0.0 | 1.7 | 0.00 | 0.00 | 0.00 | 100 | 1014.7 |
| 20260504173807 | 69 | 112 | 0.0 | 0.0 | 0.00 | 0.00 | 0.00 | 100 | 1014.7 |
| 20260504172806 | 69 | 74 | 0.0 | 0.9 | 0.00 | 0.00 | 0.00 | 100 | 1014.7 |
| 20260504140827 | 70 | 112 | 0.0 | 2.6 | 0.00 | 0.00 | 0.00 | 100 | 1015.6 |
| 20260504130812 | 70 | 112 | 0.9 | 0.9 | 0.00 | 0.00 | 0.00 | 100 | 1016.0 |
| 20260504081805 | 74 | 112 | 0.0 | 2.6 | 0.00 | 0.00 | 0.00 | 100 | 1014.8 |
| 20260504080805 | 75 | 112 | 0.0 | 0.9 | 0.00 | 0.00 | 0.00 | 100 | 1014.8 |
| 20260504050300 | 82 | 108 | 0.9 | 3.5 | 0.00 | 0.00 | 0.00 | 100 | 1013.5 |
| 20260504045304 | 83 | 112 | 1.7 | 4.3 | 0.00 | 0.00 | 0.00 | 100 | 1013.5 |
| 20260504044259 | 83 | 99 | 0.9 | 3.5 | 0.00 | 0.00 | 0.00 | 100 | 1013.6 |
| 20260504043301 | 84 | 106 | 0.0 | 3.5 | 0.00 | 0.00 | 0.00 | 100 | 1013.6 |
| 20260504042851 | 84 | 108 | 4.3 | 4.3 | 0.00 | 0.00 | 0.00 | 100 | 1013.5 |
| 20260504042353 | 84 | 112 | 0.0 | 1.7 | 0.00 | 0.00 | 0.00 | 100 | 1013.5 |
| 20260504041353 | 84 | 112 | 0.0 | 3.5 | 0.00 | 0.00 | 0.00 | 100 | 1013.6 |
| 20260504040351 | 85 | 109 | 0.0 | 4.3 | 0.00 | 0.00 | 0.00 | 100 | 1013.8 |
| 20260504035350 | 86 | 90 | 0.9 | 5.2 | 0.00 | 0.00 | 0.00 | 100 | 1013.7 |
| 20260504034353 | 86 | 112 | 1.7 | 3.5 | 0.00 | 0.00 | 0.00 | 100 | 1013.8 |
| 20260504033347 | 87 | 84 | 0.9 | 6.1 | 0.00 | 0.00 | 0.00 | 100 | 1013.9 |
| 20260504033049 | 87 | 106 | 5.2 | 5.2 | 0.00 | 0.00 | 0.00 | 100 | 1013.9 |
| 20260504032317 | 87 | 86 | 0.9 | 4.3 | 0.00 | 0.00 | 0.00 | 100 | 1014.0 |
| 20260504031941 | 87 | 112 | 5.2 | 5.2 | 0.00 | 0.00 | 0.00 | 100 | 1014.0 |
| 20260504031207 | 87 | 112 | 0.9 | 4.3 | 0.00 | 0.00 | 0.00 | 100 | 1014.1 |
| 20260504030839 | 87 | 106 | 5.2 | 5.2 | 0.00 | 0.00 | 0.00 | 100 | 1014.2 |
| 20260504030347 | 87 | 112 | 0.9 | 3.5 | 0.00 | 0.00 | 0.00 | 100 | 1014.3 |
| 20260504025345 | 87 | 112 | 1.7 | 5.2 | 0.00 | 0.00 | 0.00 | 100 | 1014.5 |
| 20260504024345 | 87 | 112 | 2.6 | 4.3 | 0.00 | 0.00 | 0.00 | 100 | 1014.7 |
| 20260504023345 | 86 | 112 | 1.7 | 5.2 | 0.00 | 0.00 | 0.00 | 100 | 1014.8 |
| 20260504022342 | 86 | 89 | 2.6 | 3.5 | 0.00 | 0.00 | 0.00 | 100 | 1015.0 |
| 20260504021342 | 86 | 105 | 0.0 | 2.6 | 0.00 | 0.00 | 0.00 | 100 | 1015.1 |
| 20260504020340 | 86 | 91 | 1.7 | 2.6 | 0.00 | 0.00 | 0.00 | 100 | 1015.1 |
| 20260504015341 | 85 | 103 | 0.0 | 4.3 | 0.00 | 0.00 | 0.00 | 100 | 1015.4 |
| 20260504014642 | 85 | 105 | 4.3 | 4.3 | 0.00 | 0.00 | 0.00 | 100 | 1015.4 |
| 20260504014113 | 85 | 112 | 0.0 | 4.3 | 0.00 | 0.00 | 0.00 | 100 | 1015.5 |
| 20260504013143 | 85 | 99 | 4.3 | 4.3 | 0.00 | 0.00 | 0.00 | 100 | 1015.7 |
| 20260504012522 | 84 | 112 | 0.0 | 3.5 | 0.00 | 0.00 | 0.00 | 100 | 1015.8 |
| 20260504011519 | 84 | 99 | 0.9 | 3.5 | 0.00 | 0.00 | 0.00 | 100 | 1016.0 |
| 20260504010520 | 83 | 111 | 4.3 | 4.3 | 0.00 | 0.00 | 0.00 | 100 | 1016.2 |
| 20260504005937 | 82 | 112 | 0.0 | 2.6 | 0.00 | 0.00 | 0.00 | 100 | 1016.3 |
| 20260504004933 | 82 | 85 | 0.9 | 2.6 | 0.00 | 0.00 | 0.00 | 100 | 1016.4 |